Location: Bathurst
(33.4193°S, 149.5775°E)
Time: 16:19:50
(UTC+10:00)

Hubble Space Telescope - Visible Passes

Search period start: 15 May 2021 00:00
Search period end: 25 May 2021 00:00
Orbit: 535 x 539 km, 28.5° (Epoch: 14 May)

Date Brightness Start Highest point End Pass type
(mag) Time Alt. Az. Time Alt. Az. Time Alt. Az.
15 May 2.7 18:29:23 10° NNW 18:32:09 17° NNE 18:33:17 16° NE visible
16 May 2.6 18:18:01 10° NNW 18:21:08 21° NNE 18:23:01 16° NE visible
16 May 3.9 19:58:01 10° WNW 19:58:20 12° WNW 19:58:20 12° WNW visible
17 May 2.4 18:06:44 10° NW 18:10:08 24° NNE 18:12:44 14° ENE visible
17 May 3.5 19:47:01 10° WNW 19:48:02 16° WNW 19:48:02 16° WNW visible
18 May 2.2 17:55:34 10° NW 17:59:08 28° NNE 18:02:25 11° ENE visible
18 May 3.1 19:36:02 10° WNW 19:37:44 22° WNW 19:37:44 22° WNW visible
19 May 2.1 17:44:26 10° NW 17:48:08 31° NNE 17:51:51 10° ENE visible
19 May 2.6 19:25:04 10° WNW 19:27:26 29° NW 19:27:26 29° NW visible
20 May 2.0 17:33:21 10° NW 17:37:10 35° N 17:40:58 10° ENE visible
20 May 2.1 19:14:06 10° WNW 19:17:08 35° NW 19:17:08 35° NW visible
21 May 1.8 19:03:10 10° WNW 19:06:52 39° NNW 19:06:52 39° NNW visible
22 May 1.8 18:52:15 10° WNW 18:56:07 37° N 18:56:39 35° N visible
23 May 2.1 18:41:21 10° WNW 18:45:08 33° N 18:46:29 26° NNE visible
24 May 2.3 18:30:28 10° WNW 18:34:08 30° NNW 18:36:25 18° NE visible
